OBJECT BQ, 64590

Orbit data source: Space-Track

You're viewing an Uncataloged Satellite

Recently launched and/or uncataloged satellites may have evolving metadata. Metadata may include but not limited to: Owner, Maufacturer, Bus, Motor, and Mission.

OBJECT BQ, 64590 is a satellite in SSO that was launched on Mon, 23 Jun 2025 UTC via an FALCON 9 launch vehicle from the Air Force Western Test Range (AFWTR). Unknown objects in Earth's orbit typically refer to objects detected orbiting the Earth but have not yet been identified or cataloged. These objects could be anything from previously untracked satellites, spent rocket stages, debris from satellite collisions, or even natural meteoroids temporarily captured by Earth's gravity.

Loading next visibility...
Identifier
64590, 2025-135BQ
Orbit
SSO
Country
Flag of TBDTBD
Related business
None
Manufacturer
Unknown
Mission
Operational Civil Technology
Bus & Motor
Unknown
Mass
Unknown
Launch date (UTC)
2025-06-23 (8 months ago)
Launch vehicle
FALCON 9
Launch site
Air Force Western Test Range (AFWTR)
Object type
Unknown
Shape & HBR
Box, 0.1 m
Radar Cross Section
0.035 m², Small (<0.1 m²)

Expand to show TLE details & history
Last TLE update: 7 hours ago

TLE from 7 hours ago
0 OBJECT BQ
1 64590U 25135BQ  26046.28224370  .00002730  00000-0  26426-3 0  9991
2 64590  97.7581 162.1729 0005983  31.4514 328.7063 14.93560251 35704
Epoch: 2026-02-15T06:46Z
TLE epoch observation values (Epoch: 2026-02-15T06:46:25.855Z)
Latitude
0.00002°
Longitude
-84.72801°
Altitude
586.328 km
Speed
7.569 km/s
True Right ascension
10h 48m 41s
True Declination
0° 00' 00"
Sunlit
Object was in full shadow at epoch
Visualization orbit readout
Latitude
Unknown
Longitude
Unknown
Altitude
Unknown
Speed
Unknown
Apparent Right ascension
Unknown
Apparent Declination
Unknown
Sunlit
N/A
Visualization observer readout
Local Sidereal Time
16:47:45
Azimuth
Unknown
Elevation
Unknown
Doppler factor
Unknown
Orbital elements
Apogee altitude
588.027 km
Perigee altitude
579.696 km
Semi-major axis
6,961.999 km
Eccentricity
0.0006
Inclination
97.7581°
RAAN
162.1729°
Arg. of periapsis
31.4514°
True anomaly
328.67067°
Mean anomaly
328.7063°
Eccentric anomaly
328.68848°
Mean motion
3.7363 °/min
Orbital period
96.35 mins
BSTAR
0.00026426
Loading maneuver chart data...
Computing Atmospheric mass density...
Loading historical data...
Loading historical data...
Loading historical data...
Loading historical data...
Loading historical data...
Loading historical data...
Loading historical data...

Documentation

Showing up to 5 results
|